Time,TemperatureF,DewpointF,PressureIn,WindDirection,WindDirectionDegrees,WindSpeedMPH,WindSpeedGustMPH,Humidity,HourlyPrecipIn,Conditions,Clouds,dailyrainin,SoftwareType,DateUTC
2013-02-25 00:02:00,47.0,30.0,29.92,ESE,103,0.0,5.0,52,0.00,,,0.00,,2013-02-25 06:02:00,
2013-02-25 00:11:00,47.0,30.0,29.92,ESE,103,0.0,5.0,52,0.00,,,0.00,,2013-02-25 06:11:00,
2013-02-25 00:21:00,47.0,30.0,29.92,ESE,103,0.0,5.0,52,0.00,,,0.00,,2013-02-25 06:21:00,
2013-02-25 00:32:00,47.0,30.0,29.92,ESE,103,0.0,5.0,52,0.00,,,0.00,,2013-02-25 06:32:00,
2013-02-25 00:42:00,47.0,30.0,29.92,ESE,103,0.0,5.0,52,0.00,,,0.00,,2013-02-25 06:42:00,
2013-02-25 01:52:00,45.0,30.0,29.91,ENE,66,1.0,3.0,56,0.00,,,0.00,,2013-02-25 07:52:00,
2013-02-25 02:01:00,45.0,30.0,29.91,ENE,78,1.0,6.0,55,0.00,,,0.00,,2013-02-25 08:01:00,
2013-02-25 02:11:00,45.0,30.0,29.91,ENE,78,1.0,6.0,55,0.00,,,0.00,,2013-02-25 08:11:00,
2013-02-25 02:21:00,45.0,30.0,29.90,ENE,63,2.0,4.0,55,0.00,,,0.00,,2013-02-25 08:21:00,
2013-02-25 02:32:00,45.0,29.0,29.88,ENE,66,2.0,4.0,54,0.00,,,0.00,,2013-02-25 08:32:00,
2013-02-25 02:41:00,45.0,29.0,29.88,ENE,66,2.0,4.0,54,0.00,,,0.00,,2013-02-25 08:41:00,
2013-02-25 02:52:00,45.0,30.0,29.88,NE,51,2.0,5.0,55,0.00,,,0.00,,2013-02-25 08:52:00,
2013-02-25 03:01:00,44.0,29.0,29.89,ENE,65,1.0,5.0,55,0.00,,,0.00,,2013-02-25 09:01:00,
2013-02-25 03:12:00,44.0,29.0,29.89,ENE,65,1.0,5.0,55,0.00,,,0.00,,2013-02-25 09:12:00,
2013-02-25 03:21:00,44.0,29.0,29.89,ENE,73,1.0,4.0,56,0.00,,,0.00,,2013-02-25 09:21:00,
2013-02-25 03:32:00,44.0,29.0,29.89,ENE,62,2.0,6.0,56,0.00,,,0.00,,2013-02-25 09:32:00,
2013-02-25 03:42:00,44.0,29.0,29.89,ENE,62,2.0,6.0,56,0.00,,,0.00,,2013-02-25 09:42:00,
2013-02-25 03:51:00,44.0,29.0,29.89,ENE,63,1.0,5.0,55,0.00,,,0.00,,2013-02-25 09:51:00,
2013-02-25 04:01:00,44.0,29.0,29.88,ENE,62,1.0,7.0,55,0.00,,,0.00,,2013-02-25 10:01:00,
2013-02-25 04:11:00,44.0,29.0,29.88,ENE,62,1.0,7.0,55,0.00,,,0.00,,2013-02-25 10:11:00,
2013-02-25 04:21:00,43.0,28.0,29.88,NE,51,2.0,6.0,56,0.00,,,0.00,,2013-02-25 10:21:00,
2013-02-25 04:32:00,43.0,29.0,29.87,NE,55,2.0,6.0,57,0.00,,,0.00,,2013-02-25 10:32:00,
2013-02-25 04:42:00,43.0,29.0,29.87,NE,55,2.0,6.0,57,0.00,,,0.00,,2013-02-25 10:42:00,
2013-02-25 04:52:00,43.0,29.0,29.87,ENE,69,2.0,5.0,58,0.00,,,0.00,,2013-02-25 10:52:00,
2013-02-25 05:01:00,42.0,28.0,29.87,NE,54,2.0,7.0,58,0.00,,,0.00,,2013-02-25 11:01:00,
2013-02-25 05:11:00,42.0,28.0,29.87,NE,54,2.0,7.0,58,0.00,,,0.00,,2013-02-25 11:11:00,
2013-02-25 05:21:00,42.0,29.0,29.87,ENE,71,2.0,6.0,59,0.00,,,0.00,,2013-02-25 11:21:00,
2013-02-25 05:32:00,42.0,28.0,29.86,ENE,73,2.0,6.0,58,0.00,,,0.00,,2013-02-25 11:32:00,
2013-02-25 05:42:00,42.0,28.0,29.86,ENE,73,2.0,6.0,58,0.00,,,0.00,,2013-02-25 11:42:00,
2013-02-25 05:52:00,42.0,29.0,29.87,East,91,2.0,7.0,59,0.00,,,0.00,,2013-02-25 11:52:00,
2013-02-25 06:02:00,42.0,29.0,29.87,ENE,57,1.0,5.0,59,0.00,,,0.00,,2013-02-25 12:02:00,
2013-02-25 06:11:00,42.0,29.0,29.87,ENE,57,1.0,5.0,59,0.00,,,0.00,,2013-02-25 12:11:00,
2013-02-25 06:21:00,42.0,29.0,29.85,ENE,62,3.0,9.0,59,0.00,,,0.00,,2013-02-25 12:21:00,
2013-02-25 06:32:00,41.0,28.0,29.86,ENE,71,3.0,5.0,59,0.00,,,0.00,,2013-02-25 12:32:00,
2013-02-25 06:42:00,41.0,28.0,29.86,ENE,71,3.0,5.0,59,0.00,,,0.00,,2013-02-25 12:42:00,
2013-02-25 06:53:00,41.0,28.0,29.86,East,84,2.0,7.0,60,0.00,,,0.00,,2013-02-25 12:53:00,
2013-02-25 07:02:00,41.0,29.0,29.86,East,88,2.0,9.0,61,0.00,,,0.00,,2013-02-25 13:02:00,
2013-02-25 07:12:00,41.0,29.0,29.86,East,88,2.0,9.0,61,0.00,,,0.00,,2013-02-25 13:12:00,
2013-02-25 07:22:00,41.0,28.0,29.85,East,89,1.0,7.0,60,0.00,,,0.00,,2013-02-25 13:22:00,
2013-02-25 07:32:00,42.0,29.0,29.84,East,96,3.0,10.0,60,0.00,,,0.00,,2013-02-25 13:32:00,
2013-02-25 07:42:00,42.0,29.0,29.84,East,96,3.0,10.0,60,0.00,,,0.00,,2013-02-25 13:42:00,
2013-02-25 07:52:00,43.0,30.0,29.84,NE,55,2.0,11.0,59,0.00,,,0.00,,2013-02-25 13:52:00,
2013-02-25 08:03:00,44.0,30.0,29.83,ENE,65,2.0,11.0,57,0.00,,,0.00,,2013-02-25 14:03:00,
2013-02-25 08:17:00,44.0,30.0,29.83,ENE,65,2.0,11.0,57,0.00,,,0.00,,2013-02-25 14:17:00,
2013-02-25 08:32:00,46.0,29.0,29.85,East,82,5.0,11.0,52,0.00,,,0.00,,2013-02-25 14:32:00,
2013-02-25 08:42:00,46.0,29.0,29.85,East,82,5.0,11.0,52,0.00,,,0.00,,2013-02-25 14:42:00,
2013-02-25 08:52:00,47.0,31.0,29.85,East,92,1.0,9.0,53,0.00,,,0.00,,2013-02-25 14:52:00,
2013-02-25 09:02:00,48.0,31.0,29.85,ENE,69,2.0,5.0,52,0.00,,,0.00,,2013-02-25 15:02:00,
2013-02-25 09:11:00,48.0,31.0,29.85,ENE,69,2.0,5.0,52,0.00,,,0.00,,2013-02-25 15:11:00,
2013-02-25 09:21:00,48.0,31.0,29.86,ENE,71,2.0,9.0,51,0.00,,,0.00,,2013-02-25 15:21:00,
2013-02-25 09:32:00,48.0,31.0,29.85,East,91,1.0,6.0,52,0.00,,,0.00,,2013-02-25 15:32:00,
2013-02-25 09:41:00,48.0,31.0,29.85,East,91,1.0,6.0,52,0.00,,,0.00,,2013-02-25 15:41:00,
2013-02-25 09:52:00,51.0,34.0,29.84,ESE,118,2.0,6.0,51,0.00,,,0.00,,2013-02-25 15:52:00,
2013-02-25 10:02:00,54.0,33.0,29.83,East,86,5.0,9.0,45,0.00,,,0.00,,2013-02-25 16:02:00,
2013-02-25 10:11:00,54.0,33.0,29.83,East,86,5.0,9.0,45,0.00,,,0.00,,2013-02-25 16:11:00,
2013-02-25 10:21:00,56.0,35.0,29.82,SE,140,4.0,15.0,45,0.00,,,0.00,,2013-02-25 16:21:00,
2013-02-25 10:32:00,57.0,35.0,29.81,East,98,6.0,14.0,44,0.00,,,0.00,,2013-02-25 16:32:00,
2013-02-25 10:42:00,57.0,35.0,29.81,East,98,6.0,14.0,44,0.00,,,0.00,,2013-02-25 16:42:00,
2013-02-25 10:52:00,57.0,35.0,29.82,ESE,111,8.0,15.0,43,0.00,,,0.00,,2013-02-25 16:52:00,
2013-02-25 11:01:00,57.0,34.0,29.81,East,88,7.0,17.0,42,0.00,,,0.00,,2013-02-25 17:01:00,
2013-02-25 11:11:00,57.0,34.0,29.81,East,88,7.0,17.0,42,0.00,,,0.00,,2013-02-25 17:11:00,
2013-02-25 11:21:00,58.0,34.0,29.80,East,101,7.0,15.0,41,0.00,,,0.00,,2013-02-25 17:21:00,
2013-02-25 11:31:00,59.0,37.0,29.78,NE,53,6.0,14.0,43,0.00,,,0.00,,2013-02-25 17:31:00,
2013-02-25 11:41:00,59.0,37.0,29.78,NE,53,6.0,14.0,43,0.00,,,0.00,,2013-02-25 17:41:00,
2013-02-25 11:52:00,58.0,36.0,29.78,ESE,121,8.0,16.0,44,0.00,,,0.00,,2013-02-25 17:52:00,
2013-02-25 12:01:00,58.0,37.0,29.77,ESE,113,3.0,13.0,46,0.00,,,0.00,,2013-02-25 18:01:00,
2013-02-25 12:12:00,58.0,37.0,29.77,ESE,113,3.0,13.0,46,0.00,,,0.00,,2013-02-25 18:12:00,
2013-02-25 12:21:00,58.0,38.0,29.76,NNE,23,8.0,19.0,47,0.00,,,0.00,,2013-02-25 18:21:00,
2013-02-25 12:32:00,58.0,38.0,29.75,East,100,8.0,14.0,47,0.00,,,0.00,,2013-02-25 18:32:00,
2013-02-25 12:41:00,58.0,38.0,29.75,East,100,8.0,14.0,47,0.00,,,0.00,,2013-02-25 18:41:00,
2013-02-25 12:52:00,58.0,38.0,29.73,ENE,70,4.0,17.0,48,0.00,,,0.00,,2013-02-25 18:52:00,
2013-02-25 13:01:00,58.0,38.0,29.72,East,84,6.0,15.0,48,0.00,,,0.00,,2013-02-25 19:01:00,
2013-02-25 13:11:00,58.0,38.0,29.72,East,84,6.0,15.0,48,0.00,,,0.00,,2013-02-25 19:11:00,
2013-02-25 13:21:00,59.0,40.0,29.70,East,98,6.0,13.0,49,0.00,,,0.00,,2013-02-25 19:21:00,
2013-02-25 13:31:00,58.0,41.0,29.69,ESE,109,8.0,14.0,53,0.00,,,0.00,,2013-02-25 19:31:00,
2013-02-25 13:42:00,58.0,41.0,29.69,ESE,109,8.0,14.0,53,0.00,,,0.00,,2013-02-25 19:42:00,
2013-02-25 13:52:00,58.0,42.0,29.68,East,96,6.0,13.0,56,0.00,,,0.00,,2013-02-25 19:52:00,
2013-02-25 14:01:00,58.0,43.0,29.67,ENE,67,7.0,14.0,58,0.00,,,0.00,,2013-02-25 20:01:00,
2013-02-25 14:11:00,58.0,43.0,29.67,ENE,67,7.0,14.0,58,0.00,,,0.00,,2013-02-25 20:11:00,
2013-02-25 14:21:00,58.0,45.0,29.66,SSE,153,5.0,15.0,61,0.00,,,0.00,,2013-02-25 20:21:00,
2013-02-25 14:31:00,58.0,47.0,29.65,ESE,113,6.0,18.0,66,0.00,,,0.00,,2013-02-25 20:31:00,
2013-02-25 14:42:00,58.0,47.0,29.65,ESE,113,6.0,18.0,66,0.00,,,0.00,,2013-02-25 20:42:00,
2013-02-25 14:52:00,57.0,47.0,29.64,ESE,102,6.0,16.0,68,0.00,,,0.00,,2013-02-25 20:52:00,
2013-02-25 15:01:00,56.0,47.0,29.62,NNE,29,10.0,21.0,72,0.00,,,0.00,,2013-02-25 21:01:00,
2013-02-25 15:11:00,56.0,47.0,29.62,NNE,29,10.0,21.0,72,0.00,,,0.00,,2013-02-25 21:11:00,
2013-02-25 15:21:00,57.0,47.0,29.59,NE,44,6.0,15.0,70,0.00,,,0.00,,2013-02-25 21:21:00,
2013-02-25 15:31:00,58.0,47.0,29.58,East,82,6.0,14.0,68,0.00,,,0.00,,2013-02-25 21:31:00,
2013-02-25 15:42:00,58.0,47.0,29.58,East,82,6.0,14.0,68,0.00,,,0.00,,2013-02-25 21:42:00,
2013-02-25 15:52:00,58.0,47.0,29.57,ESE,113,3.0,15.0,66,0.00,,,0.00,,2013-02-25 21:52:00,
2013-02-25 16:01:00,58.0,47.0,29.57,ESE,113,3.0,15.0,66,0.00,,,0.00,,2013-02-25 22:01:00,
2013-02-25 16:11:00,58.0,47.0,29.57,ESE,113,3.0,15.0,66,0.00,,,0.00,,2013-02-25 22:11:00,
2013-02-25 16:21:00,57.0,45.0,29.58,East,92,7.0,14.0,65,0.00,,,0.00,,2013-02-25 22:21:00,
2013-02-25 16:32:00,57.0,45.0,29.57,SSE,147,5.0,15.0,65,0.00,,,0.00,,2013-02-25 22:32:00,
2013-02-25 16:42:00,57.0,45.0,29.57,SSE,147,5.0,15.0,65,0.00,,,0.00,,2013-02-25 22:42:00,
2013-02-25 16:52:00,57.0,45.0,29.58,SE,142,10.0,17.0,64,0.00,,,0.00,,2013-02-25 22:52:00,
2013-02-25 17:01:00,57.0,45.0,29.53,ESE,102,4.0,17.0,64,0.00,,,0.00,,2013-02-25 23:01:00,
2013-02-25 17:11:00,57.0,45.0,29.53,ESE,102,4.0,17.0,64,0.00,,,0.00,,2013-02-25 23:11:00,
2013-02-25 17:22:00,56.0,44.0,29.52,ENE,67,6.0,16.0,64,0.00,,,0.00,,2013-02-25 23:22:00,
2013-02-25 17:31:00,56.0,44.0,29.54,East,87,8.0,13.0,64,0.00,,,0.00,,2013-02-25 23:31:00,
2013-02-25 17:41:00,56.0,44.0,29.54,East,87,8.0,13.0,64,0.00,,,0.00,,2013-02-25 23:41:00,
2013-02-25 17:52:00,57.0,45.0,29.52,NE,53,5.0,13.0,65,0.00,,,0.00,,2013-02-25 23:52:00,
2013-02-25 18:01:00,57.0,46.0,29.52,ESE,109,8.0,14.0,67,0.00,,,0.00,,2013-02-26 00:01:00,
2013-02-25 18:12:00,57.0,46.0,29.52,ESE,109,8.0,14.0,67,0.00,,,0.00,,2013-02-26 00:12:00,
2013-02-25 18:22:00,57.0,48.0,29.51,SSE,159,7.0,18.0,73,0.00,,,0.00,,2013-02-26 00:22:00,
2013-02-25 18:32:00,57.0,50.0,29.50,ESE,119,9.0,19.0,77,0.00,,,0.00,,2013-02-26 00:32:00,
2013-02-25 18:42:00,57.0,50.0,29.50,ESE,119,9.0,19.0,77,0.00,,,0.00,,2013-02-26 00:42:00,
2013-02-25 18:52:00,57.0,50.0,29.48,East,91,7.0,21.0,77,0.00,,,0.00,,2013-02-26 00:52:00,
2013-02-25 19:02:00,58.0,51.0,29.48,SE,146,7.0,22.0,77,0.00,,,0.00,,2013-02-26 01:02:00,
2013-02-25 19:11:00,58.0,51.0,29.48,SE,146,7.0,22.0,77,0.00,,,0.00,,2013-02-26 01:11:00,
2013-02-25 19:21:00,58.0,51.0,29.48,SE,146,7.0,22.0,77,0.00,,,0.00,,2013-02-26 01:21:00,
2013-02-25 19:32:00,57.0,52.0,29.48,East,95,5.0,14.0,82,0.01,,,0.01,,2013-02-26 01:32:00,
2013-02-25 19:41:00,57.0,52.0,29.48,East,95,5.0,14.0,82,0.01,,,0.01,,2013-02-26 01:41:00,
2013-02-25 19:52:00,57.0,52.0,29.48,East,95,5.0,14.0,82,0.01,,,0.01,,2013-02-26 01:52:00,
2013-02-25 20:01:00,57.0,52.0,29.48,East,95,5.0,14.0,82,0.01,,,0.01,,2013-02-26 02:01:00,
2013-02-25 20:11:00,57.0,52.0,29.48,East,95,5.0,14.0,82,0.01,,,0.01,,2013-02-26 02:11:00,
2013-02-25 20:22:00,57.0,52.0,29.42,SE,125,7.0,13.0,84,0.04,,,0.04,,2013-02-26 02:22:00,
2013-02-25 20:32:00,57.0,52.0,29.42,ESE,120,4.0,10.0,83,0.03,,,0.04,,2013-02-26 02:32:00,
2013-02-25 20:42:00,57.0,52.0,29.42,ESE,120,4.0,10.0,83,0.03,,,0.04,,2013-02-26 02:42:00,
2013-02-25 20:52:00,57.0,53.0,29.42,SE,146,6.0,14.0,85,0.03,,,0.06,,2013-02-26 02:52:00,
2013-02-25 21:02:00,57.0,53.0,29.42,SE,146,6.0,14.0,85,0.03,,,0.06,,2013-02-26 03:02:00,
2013-02-25 21:11:00,57.0,53.0,29.42,SE,146,6.0,14.0,85,0.03,,,0.06,,2013-02-26 03:11:00,
2013-02-25 21:21:00,57.0,53.0,29.42,SE,146,6.0,14.0,85,0.03,,,0.06,,2013-02-26 03:21:00,
2013-02-25 21:31:00,55.0,53.0,29.36,SE,125,6.0,16.0,93,0.20,,,0.26,,2013-02-26 03:31:00,
2013-02-25 21:32:00,55.0,53.0,29.39,ESE,117,7.0,14.0,93,0.18,,,0.22,,2013-02-26 03:32:00,
2013-02-25 21:42:00,55.0,53.0,29.39,ESE,117,7.0,14.0,93,0.18,,,0.22,,2013-02-26 03:42:00,
2013-02-25 21:52:00,55.0,53.0,29.36,SE,125,6.0,16.0,93,0.20,,,0.26,,2013-02-26 03:52:00,
2013-02-25 22:01:00,55.0,53.0,29.36,SE,125,6.0,16.0,93,0.20,,,0.26,,2013-02-26 04:01:00,
2013-02-25 22:11:00,55.0,53.0,29.36,SE,125,6.0,16.0,93,0.20,,,0.26,,2013-02-26 04:11:00,
2013-02-25 22:21:00,55.0,53.0,29.36,SE,125,6.0,16.0,93,0.20,,,0.26,,2013-02-26 04:21:00,
2013-02-25 23:32:00,54.0,53.0,29.37,SSE,157,3.0,7.0,96,0.11,,,0.46,,2013-02-26 05:32:00,
2013-02-25 23:43:00,54.0,53.0,29.37,SSE,157,3.0,7.0,96,0.11,,,0.46,,2013-02-26 05:43:00,
2013-02-25 23:52:00,55.0,54.0,29.35,SSE,165,2.0,11.0,96,0.09,,,0.49,,2013-02-26 05:52:00,